Hourly Weather Roundup
Issued by NWS Central Illinois

Home | Current Version | Previous Version | Text Only | Print | Product List | Glossary On
Versions: 1 2 3 4 5 6 7 8 9 10 11 12 13 14 15 16 17 18 19 20 21 22 23 24 25 26 27 28 29 30 31 32 33 34 35 36 37 38 39 40 41 42 43 44 45 46 47 48 49 50
000
NZUS43 KILX 202210
HWRILX

AREA WEATHER ROUNDUP
NATIONAL WEATHER SERVICE, LINCOLN IL
400 PM CST SAT DEC 20 2014


CITY           SKY/WX    TMP DP  RH WIND       PRES   REMARKS
BLOOMINGTON    CLOUDY    33  29  86 SE5       30.25R WCI  28
CHAMPAIGN      CLOUDY    34  26  72 S7        30.26R WCI  28
DECATUR        MOCLDY    35  27  72 SE5       30.25R WCI  31
FLORA          CLEAR     36  28  73 SE6       30.28R WCI  31
GALESBURG      CLOUDY    34  30  85 SE5       30.20S WCI  30
JACKSONVILLE   CLOUDY    40  34  77 S3        30.23R
LACON          CLOUDY    33  26  74 SE6       30.23S WCI  28
LAWRENCEVILLE  CLOUDY    36  27  69 CALM      30.29R
LITCHFIELD     CLOUDY    37  32  81 S7        30.24R WCI  32
$$


CITY           SKY/WX    TMP DP  RH WIND       PRES   REMARKS
LINCOLN        CLOUDY    36  30  78 SE5       30.25R WCI  32
MACOMB         CLOUDY    36  33  90 S7        30.23R FOG     WCI  30
MATTOON        CLOUDY    35  26  69 S7        30.25R WCI  29
MT CARMEL AP   CLOUDY    37  28  70 SE3       30.28R
OLNEY-NOBLE AP CLEAR     36  28  75 CALM      30.28S
PARIS          CLOUDY    34  29  83 CALM      30.28R
PEORIA         CLOUDY    36  26  67 SE6       30.23R WCI  31
PONTIAC        CLOUDY    34  29  82 S6        30.25S WCI  29
RANTOUL        CLOUDY    34  28  79 S5        30.25S WCI  30
ROBINSON       CLOUDY    35  28  73 E5        30.30R WCI  31
SPRINGFIELD    CLOUDY    38  31  76 SE7       30.24R WCI  33
TAYLORVILLE    CLOUDY    36  32  87 SE5       30.25R WCI  32
$$

...REGIONAL REPORTS...


CITY           SKY/WX    TMP DP  RH WIND       PRES   REMARKS
CHICAGO O`HARE FLURRIES  32  23  69 S7        30.24R WCI  26
KANKAKEE       CLOUDY    33  27  79 CALM      30.26F
MOLINE         CLOUDY    34  27  75 SE6       30.20S HAZE    WCI  29
MOUNT VERNON   CLOUDY    39  27  60 E5        30.27R
PITTSFIELD     CLOUDY    37  34  89 SE3       30.23R FOG
QUINCY         CLOUDY    37  33  85 SE6       30.20R FOG     WCI  32
ROCKFORD       CLOUDY    31  24  75 S5        30.25R WCI  26
$$


CITY           SKY/WX    TMP DP  RH WIND       PRES   REMARKS
BURLINGTON     CLOUDY    35  33  92 SE5       30.19R FOG     WCI  31
CEDAR RAPIDS   FOG       31  31 100 SE6       30.16R VSB 3/4 WCI  25
DES MOINES     CLOUDY    36  33  89 S7        30.13R FOG     WCI  30
KIRKSVILLE     CLOUDY    38  35  89 S7        30.16R WCI  33
OTTUMWA        CLOUDY    35  33  92 SE5       30.15R FOG     WCI  31
ST LOUIS       CLOUDY    43  33  68 SE9       30.23S
$$


CITY           SKY/WX    TMP DP  RH WIND       PRES   REMARKS
TERRE HAUTE    CLOUDY    34  25  69 SE5       30.28R WCI  30
EVANSVILLE     CLEAR     39  27  62 NE3       30.29R
INDIANAPOLIS   CLOUDY    32  23  69 CALM      30.26R
LAFAYETTE      CLOUDY    32  25  75 CALM      30.27R
MADISON        FLURRIES  30  26  85 S7        30.21S WCI  23
MILWAUKEE      CLOUDY    31  22  69 SW5       30.24R WCI  26
$$





USA.gov is the U.S. government's official web portal to all federal, state and local government web resources and services.